Location: Unspecified
(57.7900°N, 0.0000°E)
Time: 02:54:09
(UTC+00:00)

CZ-6A DEB - Visible Passes

Search period start: 04 April 2026 00:00
Search period end: 14 April 2026 00:00
Orbit: 785 x 821 km, 98.7° (Epoch: 29 March)

Date Brightness Start Highest point End Pass type
(mag) Time Alt. Az. Time Alt. Az. Time Alt. Az.
4 Apr ? 19:54:02 10° WSW 19:56:45 14° W 19:59:27 10° NW visible
5 Apr ? 19:26:32 10° SW 19:30:29 21° W 19:34:28 10° NW visible
8 Apr ? 19:50:11 10° WSW 19:53:07 15° W 19:56:03 10° NW visible
12 Apr ? 19:46:19 10° WSW 19:49:26 16° W 19:52:34 10° NW visible
